Regional Weather Roundup
Issued by NWS

Home | Current Version | Previous Version | Graphics & Text | Print | Product List | Glossary On
Versions: 1 2 3 4 5 6 7 8 9 10 11 12 13 14 15 16 17 18 19 20 21 22 23 24 25 26 27 28 29 30 31 32 33 34 35 36 37 38 39 40 41 42 43 44 45 46 47 48 49 50
000
ASUS43 KMKX 181621
RWRWI

WISCONSIN REGIONAL WEATHER ROUNDUP
NATIONAL WEATHER SERVICE MILWAUKEE/SULLIVAN WI
1100 AM CDT SAT APR 18 2015

NOTE: "FAIR" INDICATES FEW OR NO CLOUDS BELOW 12,000 FEET WITH NO
SIGNIFICANT WEATHER AND/OR OBSTRUCTIONS TO VISIBILITY.

WIZ001-002-006>008-014>016-023>028-181700-
NORTHWEST WISCONSIN

CITY           SKY/WX    TMP DP  RH WIND       PRES   REMARKS
SUPERIOR ARPT  SUNNY     42  35  74 NE17G29   30.23R
ASHLAND        SUNNY     50  36  58 N16       30.23F
HAYWARD        SUNNY     54  28  36 E15G21    30.15F
SIREN          SUNNY     56  30  37 E8        30.13F
CUMBERLAND     SUNNY     55  32  41 E10       30.12F
RICE LAKE      SUNNY     58  30  34 E13       30.14S
CHETEK         SUNNY     57  33  41 E6G17     30.12F
LADYSMITH      SUNNY     58  29  33 E9        30.15F
EAU CLAIRE     MOSUNNY   62  30  29 E10       30.10F
MENOMONIE      MOSUNNY   60  31  33 E10       30.11S
NEW RICHMOND   MOSUNNY   61  29  30 E12       30.10S
OSCEOLA        MOSUNNY   61  32  33 E8        30.13S
$$

WIZ003>005-009-010-017-018-181700-
NORTH CENTRAL WISCONSIN

CITY           SKY/WX    TMP DP  RH WIND       PRES   REMARKS
MANITOWISH WTR SUNNY     51  30  44 E9        30.19F
ARBOR VITAE      N/A     52  26  36 E9G18     30.18F HAZE
WOODRUFF         N/A     52  26  36 E9G18     30.18F HAZE
RHINELANDER    SUNNY     53  28  38 E13G22    30.18F
EAGLE RIVER    SUNNY     52  27  37 E10       30.20S
LAND O LAKES   SUNNY     51  29  43 E9        30.22S
PHILLIPS       SUNNY     53  29  39 E12       30.15F
TOMAHAWK       SUNNY     55  28  35 NE10      30.17F
MEDFORD        SUNNY     56  32  41 E10       30.14F
MERRILL        SUNNY     56  29  34 SE14G20   30.17R
$$

WIZ029-030-035-036-043>047-181700-
CENTRAL WISCONSIN

CITY           SKY/WX    TMP DP  RH WIND       PRES   REMARKS
WAUSAU         SUNNY     57  32  38 E12       30.15R
MOSINEE        SUNNY     55  30  38 NE13G21   30.17R
MARSHFIELD     SUNNY     58  31  35 E16       30.14S
STEVENS POINT  SUNNY     54  31  40 E18       30.16F
WAUPACA        SUNNY     57  33  39 E13G18    30.19R
WAUTOMA        MOSUNNY   58  32  37 NE17G23   30.16F
WISC RAPIDS    SUNNY     58  30  34 E13       30.16S
CAMP DOUGLAS   PTSUNNY   63  33  32 E17       30.12S
$$

WIZ011>013-019>022-031-037>040-048>050-181700-
NORTHEAST WISCONSIN

CITY           SKY/WX    TMP DP  RH WIND       PRES   REMARKS
ANTIGO         SUNNY     53  28  38 E12G17    30.19R
SHAWANO        SUNNY     55  35  46 E12G17    30.21R
OCONTO         SUNNY     50  36  60 E13       30.22R
STURGEON BAY   SUNNY     52  30  43 NE17G23   30.23S
GREEN BAY      SUNNY     49  39  68 NE17      30.21R
MANITOWOC      SUNNY     47  36  65 NE14G23     N/A
APPLETON       MOSUNNY   50  34  53 NE17G29   30.20R
CLINTONVILLE   SUNNY     54  32  43 E10       30.19S
OSHKOSH        MOSUNNY   53  36  52 NE14      30.17S
$$

WIZ032>034-041-042-053>061-181700-
SOUTHWEST WISCONSIN

CITY           SKY/WX    TMP DP  RH WIND       PRES   REMARKS
LA CROSSE      MOSUNNY   66  34  30 E9        30.07F
SPARTA         PTSUNNY   64  30  28 E15G21    30.11F
VIROQUA        MOSUNNY   64  32  30 E16       30.08S
BOSCOBEL       MOSUNNY   68  37  32 VRB7G20   30.07F
PRAIRIE DU CHI SUNNY     70  36  29 E12       30.04S
PLATTEVILLE    SUNNY     69  42  37 E20       30.05F
$$

WIZ056-057-062-063-064-067-068-181700-
SOUTH CENTRAL WISCONSIN

CITY           SKY/WX    TMP DP  RH WIND       PRES   REMARKS
REEDSBURG      MOSUNNY   59  35  41 E12G18    30.12S
BARABOO/DELLS  MOSUNNY   59  33  37 E14       30.13S
LONE ROCK        N/A     64  37  36 E21       30.09F
MINERAL POINT  SUNNY     66  36  32 E17G23    30.07F
MADISON        PTSUNNY   62  35  36 E16G24    30.12S
MIDDLETON      SUNNY     64  36  35 E10       30.12S
WATERTOWN      SUNNY     60  38  42 NE14G20   30.13R
MONROE         SUNNY     63  37  39 NE13G22   30.08S
JANESVILLE     SUNNY     66  32  28 E17G29    30.10R
$$

WIZ051-052-058>065-066-070>072-181700-
SOUTHEAST WISCONSIN

CITY           SKY/WX    TMP DP  RH WIND       PRES   REMARKS
MILWAUKEE      MOSUNNY   45  36  70 N22G38    30.16R
WAUKESHA       NOT AVBL
MILWAUKEE/TIMM SUNNY     50  34  53 NE20G26   30.17R
RACINE         SUNNY     46  36  68 N23G33    30.15R
BURLINGTON     SUNNY     57  33  40 NE16G22   30.12F
KENOSHA        SUNNY     55  36  48 N18G25    30.13R
FOND DU LAC    MOSUNNY   58  36  43 NE17      30.16S
SHEBOYGAN      SUNNY     48  35  60 NE23G30   30.18R
WEST BEND      MOSUNNY   52  34  50 NE15G23   30.16R
JUNEAU         MOSUNNY   58  36  43 NE15      30.15R
$$

LSZ147-162-181700-
LAKE SUPERIOR

STATION/POSITION TIME  TEMP    WIND        PRES    WAVE
                       AIR SEA DIR/SP/G            HT/PER
                 (UTC) (F)     (DEG/KT/KT) (MB)    (FT/S)
DEVILS ISLAND    1600   36      50/ 13/ 14 1026.1R
PORT WING        1500   44      30/ 12/ 16 1024.0S
SAXON HARBOR     1540   40      40/ 13/ 16 1023.4S
$$

LMZ867-665-643>646-181700-
LAKE MICHIGAN

STATION/POSITION TIME  TEMP    WIND        PRES    WAVE
                       AIR SEA DIR/SP/G            HT/PER
                 (UTC) (F)     (DEG/KT/KT) (MB)    (FT/S)
CHAMBERS ISLAND  1500   40      20/ 10/ 13 1023.7R
NORTHPORT PIER   1500   39     310/  8/ 11 1023.4R
SISTER BAY       1532   48     360/ 12/ 15   N/A
KEWAUNEE LAKESHO 1500   43      40/ 18/ 22 1022.0R
SHEBOYGAN LAKESH 1600   40      10/ 24/ 26 1022.7R
PORT WASHINGTON  1523   47      30/ 21/ 25 1022.0R
MILWAUKEE LAKESH 1600   42      10/ 21/ 28   N/A
KENOSHA   LAKESH 1600   44      10/ 24/ 29 1019.6R
$$

TC  - TEMPERATURE IN CELSIUS
VSB - VISIBILITY IN STATUTE MILES
WCI - WIND CHILL INDEX
HX  - HEAT INDEX




USA.gov is the U.S. government's official web portal to all federal, state and local government web resources and services.